Ypsilanti, MI

6:24 PM EST on December 08, 2016 (GMT -0500)
Willow Run

Weather History for KYIP - August, 2013

Change the Weather History Date:

Tuesday, August 13, 2013

  Actual Average Record
Temperature  
Mean Temperature 64 °F -  
Max Temperature 71 °F 82 °F 91 °F (1985)
Min Temperature 57 °F 60 °F 49 °F (1982)
Degree Days  
Heating Degree Days 2    
Growing Degree Days 14 (Base 50)    
Moisture  
Dew Point 54 °F    
Average Humidity 68    
Maximum Humidity 84    
Minimum Humidity 45    
Precipitation  
Precipitation 0.01 in - - ()
Sea Level Pressure  
Sea Level Pressure 29.94 in    
Wind  
Wind Speed 8 mph (NW)    
Max Wind Speed 17 mph    
Max Gust Speed 23 mph    
Visibility 10 miles    
Events Rain , Thunderstorm    
Averages and records for this station are not official NWS values.
T = Trace of Precipitation, MM = Missing Value Source: NWS Daily Summary

Daily Weather History Graph

Daily Weather History Graph

Search for Another Location

Airport or City:

Trip Planner

Search our weather history database for the weather conditions in past years. The results will help you decide how hot, cold, wet, or windy it might be!

Date:

Astronomy

Aug. 13, 2013 Rise Set
Actual Time 6:39 AM EDT 8:37 PM EDT
Civil Twilight 6:09 AM EDT 9:07 PM EDT
Nautical Twilight 5:32 AM EDT 9:44 PM EDT
Astronomical Twilight 4:51 AM EDT 10:24 PM EDT
Moon 1:42 PM EDT (8/13) No Moon Set
Length of Visible Light 14h 58m
Length of Day
13h 57m
Waxing Crescent, 41% of the Moon is Illuminated
Aug 13
Waxing Crescent
Aug 14
First Quarter
Aug 20
Full
Aug 28
Last Quarter
Sep 5
New

Hourly Weather History & Observations

Time (EDT) Temp. Dew Point Humidity Pressure Visibility Wind Dir Wind Speed Gust Speed Precip Events Conditions
12:00 AM 69.8 °F 64.4 °F 83% 29.87 in 5.0 mi South 3.5 mph - 0.00 in Rain , Thunderstorm Light Thunderstorms and Rain
12:53 AM 69.1 °F 64.0 °F 84% 29.85 in 7.0 mi NW 4.6 mph - 0.00 in Thunderstorm Thunderstorm
1:00 AM 69.8 °F 64.4 °F 83% 29.86 in 6.0 mi WNW 5.8 mph - N/A   Overcast
1:53 AM 68.0 °F 63.0 °F 84% 29.84 in 7.0 mi WNW 5.8 mph - N/A   Mostly Cloudy
2:53 AM 66.9 °F 62.1 °F 84% 29.83 in 10.0 mi NNW 6.9 mph - N/A   Clear
3:53 AM 66.0 °F 61.0 °F 84% 29.83 in 10.0 mi NW 11.5 mph - N/A   Clear
4:53 AM 64.0 °F 57.9 °F 80% 29.85 in 10.0 mi North 8.1 mph - N/A   Clear
5:53 AM 62.1 °F 57.0 °F 84% 29.87 in 10.0 mi NNW 5.8 mph - N/A   Clear
6:53 AM 62.1 °F 57.0 °F 84% 29.89 in 10.0 mi NNW 6.9 mph - N/A   Mostly Cloudy
7:17 AM 62.6 °F 57.2 °F 82% 29.92 in 10.0 mi NNW 9.2 mph - N/A   Overcast
7:37 AM 62.6 °F 57.2 °F 82% 29.92 in 10.0 mi NW 6.9 mph - N/A   Mostly Cloudy
7:53 AM 63.0 °F 57.0 °F 81% 29.91 in 10.0 mi NNW 12.7 mph 17.3 mph N/A   Overcast
8:03 AM 62.6 °F 57.2 °F 82% 29.93 in 10.0 mi NNW 8.1 mph - N/A   Overcast
8:53 AM 63.0 °F 54.0 °F 72% 29.93 in 10.0 mi North 17.3 mph 23.0 mph 0.01 in   Mostly Cloudy
9:04 AM 62.6 °F 51.8 °F 68% 29.95 in 10.0 mi North 15.0 mph - N/A   Mostly Cloudy
10:30 AM 62.6 °F 51.8 °F 68% 29.98 in 10.0 mi NW 13.8 mph - N/A   Overcast
10:53 AM 64.9 °F 51.1 °F 61% 29.97 in 10.0 mi North 15.0 mph 20.7 mph N/A   Overcast
11:29 AM 66.2 °F 51.8 °F 60% 29.99 in 10.0 mi North 15.0 mph - N/A   Scattered Clouds
11:53 AM 66.0 °F 51.1 °F 59% 29.98 in 10.0 mi NNW 11.5 mph - N/A   Scattered Clouds
12:53 PM 69.1 °F 50.0 °F 51% 29.98 in 10.0 mi NW 12.7 mph - N/A   Partly Cloudy
1:53 PM 69.1 °F 48.9 °F 49% 29.99 in 10.0 mi NNW 10.4 mph 21.9 mph N/A   Partly Cloudy
2:53 PM 70.0 °F 48.9 °F 47% 29.99 in 10.0 mi NW 13.8 mph - N/A   Scattered Clouds
3:53 PM 69.1 °F 46.9 °F 45% 30.00 in 10.0 mi NW 12.7 mph 23.0 mph N/A   Mostly Cloudy
4:53 PM 68.0 °F 46.0 °F 45% 30.00 in 10.0 mi NW 12.7 mph - N/A   Overcast
5:53 PM 70.0 °F 48.0 °F 46% 29.99 in 10.0 mi NNW 10.4 mph - N/A   Scattered Clouds
6:53 PM 66.9 °F 48.0 °F 51% 30.00 in 10.0 mi NW 10.4 mph - N/A   Scattered Clouds
7:53 PM 66.0 °F 46.9 °F 50% 30.01 in 10.0 mi NW 6.9 mph - N/A   Scattered Clouds
8:53 PM 63.0 °F 46.0 °F 54% 30.01 in 10.0 mi NW 8.1 mph - N/A   Mostly Cloudy
9:53 PM 59.0 °F 46.0 °F 62% 30.04 in 10.0 mi NW 6.9 mph - N/A   Clear
10:53 PM 57.0 °F 46.0 °F 67% 30.05 in 10.0 mi NNW 5.8 mph - N/A   Clear
11:53 PM 57.0 °F 46.0 °F 67% 30.06 in 10.0 mi NNW 8.1 mph - N/A   Clear